TimeMST,TemperatureF,Dew PointF,Humidity,Sea Level PressureIn,VisibilityMPH,Wind Direction,Wind SpeedMPH,Gust SpeedMPH,PrecipitationIn,Events,Conditions,WindDirDegrees,DateUTC
12:53 AM,-9.0,-15.0,75,30.31,10.0,West,13.8,-,N/A,,Clear,280,2013-12-09 07:53:00
1:53 AM,-11.0,-17.0,75,30.32,10.0,WSW,12.7,-,N/A,,Clear,240,2013-12-09 08:53:00
2:53 AM,-13.0,-18.0,78,30.34,10.0,WSW,8.1,-,N/A,,Mostly Cloudy,250,2013-12-09 09:53:00
3:53 AM,-15.0,-20.0,78,30.36,10.0,SSE,4.6,-,N/A,,Clear,160,2013-12-09 10:53:00
4:53 AM,-14.1,-18.0,82,30.36,10.0,West,9.2,-,N/A,,Clear,270,2013-12-09 11:53:00
5:53 AM,-16.1,-20.9,79,30.38,10.0,Calm,Calm,-,N/A,,Partly Cloudy,0,2013-12-09 12:53:00
6:53 AM,-16.1,-20.0,82,30.39,10.0,Calm,Calm,-,N/A,,Clear,0,2013-12-09 13:53:00
7:53 AM,-13.0,-17.0,82,30.37,10.0,Calm,Calm,-,N/A,,Clear,0,2013-12-09 14:53:00
8:53 AM,-11.0,-15.0,83,30.35,10.0,South,3.5,-,0.00,Snow,Light Snow,180,2013-12-09 15:53:00
9:53 AM,-2.9,-9.9,72,30.30,10.0,WSW,10.4,-,0.00,,Clear,250,2013-12-09 16:53:00
10:53 AM,8.1,-4.0,58,30.25,10.0,WSW,17.3,-,N/A,,Clear,250,2013-12-09 17:53:00
11:53 AM,10.0,-2.0,58,30.21,10.0,West,16.1,-,N/A,,Clear,260,2013-12-09 18:53:00
12:53 PM,12.0,-0.0,59,30.19,10.0,West,17.3,-,N/A,,Clear,260,2013-12-09 19:53:00
1:53 PM,14.0,1.9,59,30.17,10.0,WSW,16.1,-,N/A,,Clear,250,2013-12-09 20:53:00
2:53 PM,16.0,5.0,62,30.16,10.0,West,21.9,28.8,N/A,,Clear,260,2013-12-09 21:53:00
3:53 PM,16.0,7.0,68,30.17,10.0,West,23.0,-,N/A,,Clear,260,2013-12-09 22:53:00
4:53 PM,17.1,8.1,68,30.17,8.0,WSW,25.3,33.4,N/A,,Partly Cloudy,250,2013-12-09 23:53:00
5:53 PM,17.1,8.1,68,30.18,8.0,West,25.3,-,N/A,,Clear,270,2013-12-10 00:53:00
6:53 PM,16.0,7.0,68,30.22,10.0,West,20.7,-,N/A,,Clear,280,2013-12-10 01:53:00
7:53 PM,16.0,8.1,71,30.21,10.0,West,24.2,-,N/A,,Clear,270,2013-12-10 02:53:00
8:53 PM,17.1,8.1,68,30.23,10.0,West,20.7,-,N/A,,Scattered Clouds,270,2013-12-10 03:53:00
9:53 PM,16.0,8.1,71,30.21,10.0,West,20.7,-,N/A,,Clear,270,2013-12-10 04:53:00
10:53 PM,17.1,8.1,68,30.19,10.0,West,23.0,-,N/A,,Scattered Clouds,270,2013-12-10 05:53:00
11:53 PM,17.1,7.0,65,30.20,10.0,West,23.0,-,N/A,,Clear,270,2013-12-10 06:53:00